Location: Boursonne
(49.2024°N, 3.0468°E)
Time: 05:56:24
(UTC+00:00)

NOSS 3-3 (C) - Pass Details

Date: 03 March 2021
Orbit: 815 x 1397 km, 63.4° (Epoch: 19 March)

Event Time Altitude Azimuth Distance (km) Brightness Sun altitude
Rises 20:07:01 0° 317° (NW) 3,903 8.2 -25.4°
Reaches altitude 10° 20:09:33 10° 319° (NW) 3,023 7.4 -25.7°
Maximum altitude 20:16:55 75° 45° (NE) 1,294 4.4 -26.9°
Enters shadow 20:18:47 56° 111° (ESE) 1,494 4.5 -27.1°
